H1 CPF 2 COD 2024 9 4 1 248 1 galileo215 NONE
H2 1707901 7215 43055 2024 9 3 23 59 42 2024 9 8 23 59 42 900 1 1 0 0 0 1
H5 0.5555
H9
10 0 60556  86382.000000  0    9482979.422 -19517831.595  20137576.904
10 0 60557    882.000000  0    9971054.081 -17700454.002  21533119.313
10 0 60557   1782.000000  0   10621392.243 -15813783.311  22660967.222
10 0 60557   2682.000000  0   11435393.985 -13894607.776  23507108.275
10 0 60557   3582.000000  0   12408287.843 -11979755.724  24061030.253
10 0 60557   4482.000000  0   13529236.664 -10104991.964  24315851.023
10 0 60557   5382.000000  0   14781635.483  -8303949.527  24268403.627
10 0 60557   6282.000000  0   16143592.184  -6607129.977  23919275.486
10 0 60557   7182.000000  0   17588576.019  -5041003.408  23272801.266
10 0 60557   8082.000000  0   19086213.814  -3627236.121  22337009.457
10 0 60557   8982.000000  0   20603209.085  -2382069.992  21123523.322
10 0 60557   9882.000000  0   22104355.429  -1315872.851  19647417.353
10 0 60557  10782.000000  0   23553612.615   -432873.813  17927030.956
10 0 60557  11682.000000  0   24915211.780    268908.205  15983741.596
10 0 60557  12582.000000  0   26154755.229    797540.628  13841700.110
10 0 60557  13482.000000  0   27240276.455   1166861.927  11527531.408
10 0 60557  14382.000000  0   28143227.197   1395984.839   9070004.209
10 0 60557  15282.000000  0   28839360.616   1508633.677   6499673.854
10 0 60557  16182.000000  0   29309482.889   1532336.591   3848502.624
10 0 60557  17082.000000  0   29540049.613   1497498.138   1149462.265
10 0 60557  17982.000000  0   29523588.272   1436381.362  -1563876.312
10 0 60557  18882.000000  0   29258933.465   1382031.387  -4257761.007
10 0 60557  19782.000000  0   28751267.451   1367174.420  -6898678.935
10 0 60557  20682.000000  0   28011964.707   1423126.825  -9453773.971
10 0 60557  21582.000000  0   27058245.321   1578748.644 -11891256.152
10 0 60557  22482.000000  0   25912648.082   1859474.517 -14180797.808
10 0 60557  23382.000000  0   24602339.745   2286452.562 -16293911.422
10 0 60557  24282.000000  0   23158282.148   2875818.333 -18204304.489
10 0 60557  25182.000000  0   21614283.254   3638126.785 -19888206.945
10 0 60557  26082.000000  0   20005961.863   4577960.153 -21324667.075
10 0 60557  26982.000000  0   18369658.411   5693724.158 -22495812.249
10 0 60557  27882.000000  0   16741325.947   6977639.054 -23387071.255
10 0 60557  28782.000000  0   15155435.988   8415925.884 -23987355.507
10 0 60557  29682.000000  0   13643933.454   9989182.239 -24289196.899
10 0 60557  30582.000000  0   12235273.352  11672935.846 -24288840.623
10 0 60557  31482.000000  0   10953569.284  13438358.771 -23986291.824
10 0 60557  32382.000000  0    9817880.356  15253119.973 -23385315.521
10 0 60557  33282.000000  0    8841658.730  17082349.635 -22493389.789
10 0 60557  34182.000000  0    8032375.016  18889685.166 -21321612.773
10 0 60557  35082.000000  0    7391333.155  20638366.226 -19884564.668
10 0 60557  35982.000000  0    6913680.479  22292344.562 -18200126.346
10 0 60557  36882.000000  0    6588612.552  23817373.964 -16289256.855
10 0 60557  37782.000000  0    6399766.255  25182046.266 -14175732.530
10 0 60557  38682.000000  0    6325788.712  26358740.973 -11885850.944
10 0 60557  39582.000000  0    6341064.089  27324458.804  -9448103.362
10 0 60557  40482.000000  0    6416575.367  28061513.056  -6892819.811
10 0 60557  41382.000000  0    6520873.935  28558057.165  -4251791.173
10 0 60557  42282.000000  0    6621126.467  28808431.960  -1557873.075
10 0 60557  43182.000000  0    6684206.092  28813321.775   1155423.455
10 0 60557  44082.000000  0    6677793.520  28579714.590   3854349.410
10 0 60557  44982.000000  0    6571453.441  28120667.519   6505338.046
10 0 60557  45882.000000  0    6337652.317  27454885.082   9075422.654
10 0 60557  46782.000000  0    5952685.565  26606123.567  11532646.628
10 0 60557  47682.000000  0    5397484.945  25602440.232  13846460.699
10 0 60557  48582.000000  0    4658280.792  24475310.946  15988102.377
10 0 60557  49482.000000  0    3727098.258  23258643.991  17930952.915
10 0 60557  50382.000000  0    2602071.991  21987720.919  19650867.399
10 0 60557  51282.000000  0    1287569.307  20698097.680  21126473.906
10 0 60557  52182.000000  0    -205882.019  19424500.378  22339438.105
10 0 60557  53082.000000  0   -1861859.178  18199750.188  23274690.103
10 0 60557  53982.000000  0   -3658494.734  17053751.012  23920610.786
10 0 60557  54882.000000  0   -5569098.025  16012571.451  24269175.455
10 0 60557  55782.000000  0   -7562928.251  15097649.737  24316053.011
10 0 60557  56682.000000  0   -9606095.217  14325146.385  24060659.531
10 0 60557  57582.000000  0  -11662559.728  13705464.734  23506165.574
10 0 60557  58482.000000  0  -13695202.516  13242954.298  22659457.143
10 0 60557  59382.000000  0  -15666928.452  12935806.149  21531050.734
10 0 60557  60282.000000  0  -17541771.673  12776143.551  20134963.496
10 0 60557  61182.000000  0  -19285967.199  12750305.016  18488540.025
10 0 60557  62082.000000  0  -20868955.654  12839310.868  16612237.860
10 0 60557  62982.000000  0  -22264289.729  13019498.739  14529374.260
10 0 60557  63882.000000  0  -23450414.116  13263308.064  12265837.317
10 0 60557  64782.000000  0  -24411294.515  13540189.003   9849764.911
10 0 60557  65682.000000  0  -25136876.053  13817607.267   7311195.458
10 0 60557  66582.000000  0  -25623356.759  14062113.306   4681694.741
10 0 60557  67482.000000  0  -25873267.535  14240442.285   1993963.448
10 0 60557  68382.000000  0  -25895356.099  14320610.240   -718569.665
10 0 60557  69282.000000  0  -25704278.577  14272971.941  -3422163.922
10 0 60557  70182.000000  0  -25320108.394  14071207.155  -6083186.932
10 0 60557  71082.000000  0  -24767677.935  13693204.227  -8668533.581
10 0 60557  71982.000000  0  -24075773.631  13121813.127 -11146038.512
10 0 60557  72882.000000  0  -23276209.802  12345444.206 -13484876.919
10 0 60557  73782.000000  0  -22402810.329  11358493.749 -15655948.593
10 0 60557  74682.000000  0  -21490330.185  10161582.838 -17632240.415
10 0 60557  75582.000000  0  -20573350.672   8761601.929 -19389162.765
10 0 60557  76482.000000  0  -19685183.069   7171559.625 -20904855.643
10 0 60557  77382.000000  0  -18856815.086   5410240.267 -22160460.717
10 0 60557  78282.000000  0  -18115933.170   3501680.962 -23140355.934
10 0 60557  79182.000000  0  -17486051.316   1474484.311 -23832349.809
10 0 60557  80082.000000  0  -16985773.676   -639011.758 -24227833.001
10 0 60557  80982.000000  0  -16628214.058  -2803681.177 -24321885.338
10 0 60557  81882.000000  0  -16420590.486  -4982644.435 -24113336.980
10 0 60557  82782.000000  0  -16364007.504  -7138358.506 -23604782.958
10 0 60557  83682.000000  0  -16453433.014  -9233728.047 -22802550.934
10 0 60557  84582.000000  0  -16677870.362 -11233203.185 -21716622.549
10 0 60557  85482.000000  0  -17020720.252 -13103829.674 -20360509.328
10 0 60557  86382.000000  0  -17460321.127 -14816218.644 -18751084.641
10 0 60558    882.000000  0  -17970651.046 -16345405.695 -16908373.786
10 0 60558   1782.000000  0  -18522169.035 -17671572.525 -14855304.770
10 0 60558   2682.000000  0  -19082769.473 -18780608.592 -12617422.856
10 0 60558   3582.000000  0  -19618819.546 -19664495.291 -10222572.432
10 0 60558   4482.000000  0  -20096247.161 -20321500.723  -7700550.147
10 0 60558   5382.000000  0  -20481645.122 -20756179.030  -5082733.663
10 0 60558   6282.000000  0  -20743356.854 -20979174.447  -2401690.677
10 0 60558   7182.000000  0  -20852509.533 -21006836.316    309226.871
10 0 60558   8082.000000  0  -20783962.119 -20860657.272   3016298.291
10 0 60558   8982.000000  0  -20517138.504 -20566552.349   5685854.103
10 0 60558   9882.000000  0  -20036719.553 -20154001.745   8284695.176
10 0 60558  10782.000000  0  -19333172.305 -19655084.260  10780505.784
10 0 60558  11682.000000  0  -18403099.689 -19103431.826  13142255.404
10 0 60558  12582.000000  0  -17249399.765 -18533138.023  15340584.241
10 0 60558  13482.000000  0  -15881229.489 -17977654.849  17348167.703
10 0 60558  14382.000000  0  -14313774.086 -17468712.395  19140055.330
10 0 60558  15282.000000  0  -12567829.248 -17035295.286  20693980.008
10 0 60558  16182.000000  0  -10669209.163 -16702707.973  21990633.717
10 0 60558  17082.000000  0   -8647998.856 -16491758.119  23013906.460
10 0 60558  17982.000000  0   -6537674.122 -16418083.639  23751085.498
10 0 60558  18882.000000  0   -4374116.478 -16491644.432  24193012.513
10 0 60558  19782.000000  0   -2194553.791 -16716394.687  24334196.799
10 0 60558  20682.000000  0     -36459.543 -17090146.007  24172883.160
10 0 60558  21582.000000  0    2063555.008 -17604625.658  23711073.680
10 0 60558  22482.000000  0    4070821.336 -18245728.126  22954503.105
10 0 60558  23382.000000  0    5953633.195 -18993952.167  21912568.131
10 0 60558  24282.000000  0    7684173.490 -19825009.731  20598211.414
10 0 60558  25182.000000  0    9239319.642 -20710587.771  19027761.672
10 0 60558  26082.000000  0   10601302.356 -21619239.150  17220731.801
10 0 60558  26982.000000  0   11758197.289 -22517374.834  15199577.394
10 0 60558  27882.000000  0   12704234.309 -23370326.323  12989418.597
10 0 60558  28782.000000  0   13439914.708 -24143445.088  10617728.668
10 0 60558  29682.000000  0   13971932.763 -24803204.547   8113993.048
10 0 60558  30582.000000  0   14312904.131 -25318270.040   5509343.147
10 0 60558  31482.000000  0   14480909.642 -25660503.196   2836169.363
10 0 60558  32382.000000  0   14498868.839 -25805869.132    127718.178
10 0 60558  33282.000000  0   14393762.973 -25735217.950  -2582321.655
10 0 60558  34182.000000  0   14195731.904 -25434915.928  -5260238.620
10 0 60558  35082.000000  0   13937073.315 -24897306.496  -7872718.371
10 0 60558  35982.000000  0   13651175.744 -24120986.440 -10387258.803
10 0 60558  36882.000000  0   13371419.018 -23110888.586 -12772575.017
99